Location: Bluff Heights
(33.7692°N, 118.1592°W)
Time: 10:07:12
(UTC+00:00)

Tiros 1 - Pass Details

Date: 29 July 2021
Orbit: 630 x 663 km, 48.4° (Epoch: 22 September)

Event Time Altitude Azimuth Distance (km) Brightness Sun altitude
Rises 10:42:16 0° 294° (WNW) 2,929 - -24.8°
Reaches altitude 10° 10:45:03 10° 278° (W) 2,012 - -24.4°
Maximum altitude 10:48:29 21° 230° (SW) 1,426 - -23.9°
Drops below altitude 10° 10:51:54 10° 181° (S) 1,996 - -23.4°
Sets 10:54:40 0° 165° (SSE) 2,898 - -23.0°
